Date String (YYYY-MM-DD hh:mm:ss) UTC,Instrument flags,Ambient pressure (hPa),Sample flow (lpm),Bypass flow (lpm),Sample temperature (°C),Ambient temperature (°C),ASC tube jacket temperature (°C),LED temperature (°C),Box temperature (°C),Sample RH (%),Span deviation,Mass concentration (μg/m³),Mass concentration (μg/m³),Mass concentration (μg/m³)
DateTimeUTC,F1_M11,P_M11,Q1_M11,Q2_M11,T1_M11,T2_M11,T3_M11,T4_M11,T5_M11,U1_M11,ZSPAN_M11,X0_M11,X2_M11,X1_M11
2021-09-21 18:00:00,,0840.7,4.99,0.00,29.1,28.3,00.0,38.1,30.9,12.8,0000.0,0004.90,0002.06,0001.64
2021-09-21 18:01:00,,0840.6,5.01,0.00,29.1,28.3,00.0,38.1,30.9,12.7,0000.0,0005.41,0002.07,0001.66
2021-09-21 18:02:00,,0840.7,5.00,0.00,29.1,28.3,00.0,38.1,30.9,12.7,0000.0,0005.89,0002.07,0001.66
2021-09-21 18:03:00,,0840.6,5.01,0.00,29.1,28.3,00.0,38.1,30.9,12.7,0000.0,0005.96,0002.09,0001.67
2021-09-21 18:04:00,,0840.6,5.01,0.00,29.1,28.4,00.0,38.1,30.9,12.7,0000.0,0005.90,0002.11,0001.68
2021-09-21 18:05:00,,0840.7,5.00,0.00,29.1,28.4,00.0,38.1,30.9,12.8,0000.0,0005.88,0002.09,0001.67
2021-09-21 18:06:00,,0840.6,4.99,0.00,29.1,28.4,00.0,38.1,30.9,12.9,0000.0,0005.53,0002.08,0001.65
2021-09-21 18:07:00,,0840.6,5.01,0.00,29.1,28.4,00.0,38.2,30.9,13.1,0000.0,0005.26,0002.03,0001.63
2021-09-21 18:08:00,,0840.5,5.01,0.00,29.2,28.5,00.0,38.2,31.0,12.7,0000.0,0005.05,0002.01,0001.62
2021-09-21 18:09:00,,0840.5,5.00,0.00,29.2,28.5,00.0,38.2,31.0,12.7,0000.0,0004.53,0001.95,0001.61
2021-09-21 18:10:00,,0840.5,5.00,0.00,29.2,28.5,00.0,38.2,31.0,13.0,0000.0,0004.42,0001.90,0001.57
2021-09-21 18:11:00,,0840.5,5.01,0.00,29.2,28.5,00.0,38.2,31.0,12.6,0000.0,0004.65,0001.90,0001.56
2021-09-21 18:12:00,,0840.5,5.00,0.00,29.2,28.5,00.0,38.2,31.0,12.5,0000.0,0004.59,0001.91,0001.56
2021-09-21 18:13:00,,0840.5,4.99,0.00,29.2,28.5,00.0,38.2,31.0,12.3,0000.0,0004.66,0001.93,0001.56
2021-09-21 18:14:00,,0840.4,5.01,0.00,29.2,28.5,00.0,38.2,31.0,12.1,0000.0,0005.99,0001.98,0001.58
2021-09-21 18:15:00,,0840.4,5.01,0.00,29.2,28.5,00.0,38.2,31.0,12.1,0000.0,0006.54,0002.00,0001.59
2021-09-21 18:16:00,,0840.3,5.00,0.00,29.2,28.5,00.0,38.3,31.0,12.2,0000.0,0007.20,0002.03,0001.61
2021-09-21 18:17:00,,0840.4,5.01,0.00,29.2,28.5,00.0,38.3,31.0,12.1,0000.0,0007.72,0002.02,0001.64
2021-09-21 18:18:00,,0840.4,4.99,0.00,29.3,28.5,00.0,38.3,31.0,12.4,0000.0,0008.09,0002.05,0001.65
2021-09-21 18:19:00,,0840.4,5.01,0.00,29.3,28.5,00.0,38.3,31.0,12.4,0000.0,0008.33,0002.10,0001.67
2021-09-21 18:20:00,,0840.4,5.00,0.00,29.3,28.5,00.0,38.3,31.1,12.7,0000.0,0008.32,0002.09,0001.67
2021-09-21 18:21:00,,0840.4,5.00,0.00,29.3,28.5,00.0,38.3,31.0,13.2,0000.0,0008.34,0002.08,0001.70
2021-09-21 18:22:00,,0840.4,5.01,0.00,29.3,28.5,00.0,38.3,31.0,13.0,0000.0,0008.89,0002.14,0001.72
2021-09-21 18:23:00,,0840.4,5.00,0.00,29.2,28.5,00.0,38.3,31.0,12.9,0000.0,0009.43,0002.19,0001.76
2021-09-21 18:24:00,,0840.2,5.01,0.00,29.2,28.5,00.0,38.3,31.0,12.8,0000.0,0009.35,0002.20,0001.78
2021-09-21 18:25:00,,0840.2,5.01,0.00,29.2,28.5,00.0,38.3,31.0,13.8,0000.0,0009.00,0002.16,0001.79
2021-09-21 18:26:00,,0840.3,5.01,0.00,29.2,28.5,00.0,38.3,31.0,13.5,0000.0,0008.74,0002.23,0001.81
2021-09-21 18:27:00,,0840.2,4.98,0.00,29.2,28.4,00.0,38.3,31.0,13.1,0000.0,0008.51,0002.27,0001.85
2021-09-21 18:28:00,,0840.3,5.00,0.00,29.2,28.4,00.0,38.3,30.9,13.3,0000.0,0008.21,0002.32,0001.88
2021-09-21 18:29:00,,0840.1,5.01,0.00,29.2,28.4,00.0,38.3,30.9,12.8,0000.0,0007.77,0002.37,0001.92
2021-09-21 18:30:00,,0840.2,5.00,0.00,29.2,28.4,00.0,38.3,30.9,13.2,0000.0,0007.49,0002.37,0001.96
2021-09-21 18:31:00,,0840.2,4.99,0.00,29.2,28.4,00.0,38.3,30.9,13.5,0000.0,0007.53,0002.42,0001.99
2021-09-21 18:32:00,,0840.2,5.01,0.00,29.2,28.4,00.0,38.3,31.0,13.2,0000.0,0007.51,0002.47,0002.03
2021-09-21 18:33:00,,0840.2,5.01,0.00,29.2,28.5,00.0,38.3,30.9,13.1,0000.0,0006.50,0002.46,0002.06
2021-09-21 18:34:00,,0840.2,4.99,0.00,29.2,28.5,00.0,38.3,30.9,13.0,0000.0,0005.00,0002.44,0002.07
2021-09-21 18:35:00,,0840.2,5.00,0.00,29.2,28.5,00.0,38.3,30.9,13.1,0000.0,0004.91,0002.49,0002.10
2021-09-21 18:36:00,,0840.1,5.00,0.00,29.2,28.4,00.0,38.3,30.9,12.7,0000.0,0004.14,0002.51,0002.10
2021-09-21 18:37:00,,0840.2,5.00,0.00,29.2,28.4,00.0,38.3,30.9,12.6,0000.0,0003.72,0002.47,0002.11
2021-09-21 18:38:00,,0840.2,5.00,0.00,29.2,28.5,00.0,38.3,30.9,12.9,0000.0,0003.68,0002.45,0002.10
2021-09-21 18:39:00,,0840.1,5.00,0.00,29.2,28.5,00.0,38.3,30.9,12.8,0000.0,0003.66,0002.45,0002.10
2021-09-21 18:40:00,,0840.1,5.01,0.00,29.2,28.5,00.0,38.3,30.9,13.0,0000.0,0003.83,0002.48,0002.10
2021-09-21 18:41:00,,0840.0,4.99,0.00,29.2,28.5,00.0,38.3,30.9,13.1,0000.0,0003.90,0002.49,0002.08
2021-09-21 18:42:00,,0840.0,5.00,0.00,29.2,28.5,00.0,38.3,30.9,13.3,0000.0,0003.89,0002.48,0002.08
2021-09-21 18:43:00,,0840.0,5.00,0.00,29.2,28.4,00.0,38.3,30.9,13.3,0000.0,0003.98,0002.52,0002.08
2021-09-21 18:44:00,,0840.0,5.00,0.00,29.2,28.4,00.0,38.3,30.9,13.4,0000.0,0004.01,0002.52,0002.07
2021-09-21 18:45:00,,0840.0,5.01,0.00,29.2,28.4,00.0,38.3,30.9,13.2,0000.0,0004.00,0002.56,0002.08
2021-09-21 18:46:00,,0839.9,5.00,0.00,29.2,28.4,00.0,38.3,30.9,13.1,0000.0,0003.86,0002.54,0002.08
2021-09-21 18:47:00,,0839.9,4.99,0.00,29.2,28.4,00.0,38.3,30.9,13.1,0000.0,0003.83,0002.56,0002.09
2021-09-21 18:48:00,,0840.0,5.00,0.00,29.2,28.4,00.0,38.3,30.9,13.0,0000.0,0004.90,0002.58,0002.09
2021-09-21 18:49:00,,0840.0,5.00,0.00,29.2,28.4,00.0,38.3,30.9,12.4,0000.0,0006.30,0002.56,0002.08
2021-09-21 18:50:00,,0839.9,5.00,0.00,29.2,28.4,00.0,38.3,30.9,12.8,0000.0,0006.99,0002.59,0002.09
2021-09-21 18:51:00,,0839.9,5.00,0.00,29.2,28.4,00.0,38.3,30.9,12.7,0000.0,0006.83,0002.54,0002.08
2021-09-21 18:52:00,,0839.9,5.00,0.00,29.2,28.4,00.0,38.3,30.9,12.5,0000.0,0006.76,0002.52,0002.08
2021-09-21 18:53:00,,0839.9,5.01,0.00,29.2,28.4,00.0,38.3,30.9,12.1,0000.0,0006.75,0002.50,0002.07
2021-09-21 18:54:00,,0839.9,5.00,0.00,29.2,28.4,00.0,38.3,30.9,12.5,0000.0,0006.63,0002.45,0002.05
2021-09-21 18:55:00,,0839.9,5.00,0.00,29.2,28.4,00.0,38.3,30.9,12.5,0000.0,0006.88,0002.43,0002.04
2021-09-21 18:56:00,,0839.9,5.00,0.00,29.2,28.5,00.0,38.3,30.9,12.7,0000.0,0007.74,0002.35,0001.99
2021-09-21 18:57:00,,0839.8,5.00,0.00,29.2,28.5,00.0,38.3,30.9,12.3,0000.0,0007.79,0002.34,0001.96
2021-09-21 18:58:00,,0839.8,5.00,0.00,29.2,28.5,00.0,38.3,30.9,12.6,0000.0,0007.80,0002.35,0001.97
2021-09-21 18:59:00,,0839.8,5.00,0.00,29.2,28.5,00.0,38.3,31.0,12.5,0000.0,0006.91,0002.32,0001.95
